| time (UTC) | temp F | wind direction | speed MPH | gust MPH | rain 1hr in | rain 24hr in | rain mn in | humidity % | barometer mb |
| 20260506061746 | 76 | 158 | 2.0 | 7.0 | 0.00 | 0.00 | 0.00 | 89 | |
| 20260506060746 | 76 | 90 | 1.0 | 4.0 | 0.00 | 0.00 | 0.00 | 89 | |
| 20260506050746 | 77 | 135 | 2.0 | 9.0 | 0.00 | 0.00 | 0.00 | 87 | |
| 20260506044747 | 78 | 113 | 3.0 | 7.0 | 0.00 | 0.00 | 0.00 | 87 | |
| 20260506043746 | 78 | 113 | 3.0 | 5.0 | 0.00 | 0.00 | 0.00 | 86 | |
| 20260506042746 | 78 | 135 | 3.0 | 7.0 | 0.00 | 0.00 | 0.00 | 86 | |
| 20260506041747 | 78 | 135 | 2.0 | 8.0 | 0.00 | 0.00 | 0.00 | 86 | |
| 20260506040747 | 78 | 68 | 2.0 | 7.0 | 0.00 | 0.00 | 0.00 | 85 | |
| 20260506035746 | 78 | 90 | 2.0 | 11.0 | 0.00 | 0.00 | 0.00 | 85 | |
| 20260506034746 | 78 | 90 | 3.0 | 8.0 | 0.00 | 0.00 | 0.00 | 85 | |
| 20260506033811 | 79 | 68 | 2.0 | 7.0 | 0.00 | 0.00 | 0.00 | 84 | |
| 20260506032747 | 79 | 90 | 2.0 | 7.0 | 0.00 | 0.00 | 0.00 | 84 | |
| 20260506031746 | 79 | 90 | 2.0 | 7.0 | 0.00 | 0.00 | 0.00 | 83 | |
| 20260506030746 | 79 | 68 | 2.0 | 5.0 | 0.00 | 0.00 | 0.00 | 83 | |
| 20260506025746 | 79 | 135 | 2.0 | 7.0 | 0.00 | 0.00 | 0.00 | 82 | |
| 20260506024747 | 80 | 135 | 3.0 | 7.0 | 0.00 | 0.00 | 0.00 | 82 | |
| 20260506023747 | 80 | 68 | 2.0 | 7.0 | 0.00 | 0.00 | 0.00 | 81 | |
| 20260506022810 | 80 | 68 | 3.0 | 10.0 | 0.00 | 0.00 | 0.00 | 80 | |
| 20260506021746 | 81 | 68 | 3.0 | 9.0 | 0.00 | 0.00 | 0.00 | 78 | |
| 20260506020746 | 81 | 90 | 2.0 | 5.0 | 0.00 | 0.00 | 0.00 | 78 | |
| 20260506015746 | 82 | 68 | 2.0 | 7.0 | 0.00 | 0.00 | 0.00 | 77 | |
| 20260506014746 | 82 | 68 | 2.0 | 5.0 | 0.00 | 0.00 | 0.00 | 76 | |
| 20260506013746 | 82 | 68 | 1.0 | 4.0 | 0.00 | 0.00 | 0.00 | 75 | |
| 20260506012747 | 83 | 90 | 1.0 | 6.0 | 0.00 | 0.00 | 0.00 | 75 | |
| 20260506011746 | 83 | 113 | 1.0 | 3.0 | 0.00 | 0.00 | 0.00 | 74 | |
| 20260506010811 | 83 | 113 | 1.0 | 3.0 | 0.00 | 0.00 | 0.00 | 73 | |
| 20260506005746 | 84 | 90 | 1.0 | 3.0 | 0.00 | 0.00 | 0.00 | 72 | |
| 20260506004746 | 84 | 90 | 1.0 | 6.0 | 0.00 | 0.00 | 0.00 | 72 | |
| 20260506003746 | 84 | 68 | 1.0 | 3.0 | 0.00 | 0.00 | 0.00 | 72 | |
| 20260506002746 | 85 | 68 | 1.0 | 6.0 | 0.00 | 0.00 | 0.00 | 71 | |
| 20260506001812 | 85 | 68 | 1.0 | 3.0 | 0.00 | 0.00 | 0.00 | 71 | |
| 20260506000746 | 85 | 68 | 1.0 | 5.0 | 0.00 | 0.00 | 0.00 | 70 | |
| 20260505235746 | 85 | 90 | 2.0 | 7.0 | 0.00 | 0.00 | 0.00 | 70 | |
| 20260505234811 | 85 | 68 | 1.0 | 4.0 | 0.00 | 0.00 | 0.00 | 70 | |
| 20260505233746 | 85 | 135 | 1.0 | 3.0 | 0.00 | 0.00 | 0.00 | 70 | |
| 20260505232746 | 86 | 113 | 3.0 | 10.0 | 0.00 | 0.00 | 0.00 | 68 | 1005.3 |
| 20260505231746 | 86 | 90 | 1.0 | 5.0 | 0.00 | 0.00 | 0.00 | 68 | 1005.3 |
| 20260505230746 | 86 | 158 | 3.0 | 7.0 | 0.00 | 0.00 | 0.00 | 68 | 1005.2 |
| 20260505225811 | 86 | 113 | 1.0 | 7.0 | 0.00 | 0.00 | 0.00 | 69 | 1005.1 |
| 20260505224811 | 86 | 90 | 3.0 | 7.0 | 0.00 | 0.00 | 0.00 | 68 | 1005.1 |
| 20260505223746 | 86 | 113 | 3.0 | 10.0 | 0.00 | 0.00 | 0.00 | 67 | 1005.1 |
| 20260505222811 | 86 | 135 | 3.0 | 9.0 | 0.00 | 0.00 | 0.00 | 66 | 1005.2 |
| 20260505221746 | 87 | 135 | 4.0 | 9.0 | 0.00 | 0.00 | 0.00 | 65 | 1005.2 |
| 20260505220746 | 87 | 68 | 3.0 | 10.0 | 0.00 | 0.00 | 0.00 | 66 | 1005.2 |
| 20260505215746 | 87 | 90 | 2.0 | 7.0 | 0.00 | 0.00 | 0.00 | 65 | 1005.4 |
| 20260505214746 | 87 | 90 | 2.0 | 6.0 | 0.00 | 0.00 | 0.00 | 65 | 1005.7 |
| 20260505213746 | 89 | 68 | 3.0 | 7.0 | 0.00 | 0.00 | 0.00 | 63 | 1005.9 |
| 20260505212746 | 88 | 158 | 2.0 | 4.0 | 0.00 | 0.00 | 0.00 | 64 | 1005.8 |
| 20260505211745 | 0 | 0.0 | 0.0 | 0.00 | 0.00 | 0.00 | |||
| 20260505210745 | 0 | 0.0 | 0.0 | 0.00 | 0.00 | 0.00 | |||
| 20260505205745 | 0 | 0.0 | 0.0 | 0.00 | 0.00 | 0.00 | |||
| 20260505204746 | 0 | 0.0 | 0.0 | 0.00 | 0.00 | 0.00 | |||
| 20260505203745 | 0 | 0.0 | 0.0 | 0.00 | 0.00 | 0.00 | |||
| 20260505202745 | 0 | 0.0 | 0.0 | 0.00 | 0.00 | 0.00 | |||
| 20260505201745 | 0 | 0.0 | 0.0 | 0.00 | 0.00 | 0.00 | |||
| 20260505200745 | 0 | 0.0 | 0.0 | 0.00 | 0.00 | 0.00 | |||
| 20260505195745 | 0 | 0.0 | 0.0 | 0.00 | 0.00 | 0.00 | |||
| 20260505194810 | 0 | 0.0 | 0.0 | 0.00 | 0.00 | 0.00 | |||
| 20260505193745 | 0 | 0.0 | 0.0 | 0.00 | 0.00 | 0.00 | |||
| 20260505192745 | 0 | 0.0 | 0.0 | 0.00 | 0.00 | 0.00 | |||
| 20260505191745 | 0 | 0.0 | 0.0 | 0.00 | 0.00 | 0.00 | |||
| 20260505190745 | 0 | 0.0 | 0.0 | 0.00 | 0.00 | 0.00 | |||
| 20260505185745 | 0 | 0.0 | 0.0 | 0.00 | 0.00 | 0.00 | |||
| 20260505184745 | 0 | 0.0 | 0.0 | 0.00 | 0.00 | 0.00 | |||
| 20260505183745 | 0 | 0.0 | 0.0 | 0.00 | 0.00 | 0.00 | |||
| 20260505182745 | 0 | 0.0 | 0.0 | 0.00 | 0.00 | 0.00 | |||
| 20260505181745 | 0 | 0.0 | 0.0 | 0.00 | 0.00 | 0.00 | |||
| 20260505180745 | 0 | 0.0 | 0.0 | 0.00 | 0.00 | 0.00 | |||
| 20260505175810 | 0 | 0.0 | 0.0 | 0.00 | 0.00 | 0.00 | |||
| 20260505174745 | 0 | 0.0 | 0.0 | 0.00 | 0.00 | 0.00 | |||
| 20260505173745 | 0 | 0.0 | 0.0 | 0.00 | 0.00 | 0.00 | |||
| 20260505172833 | 0 | 0.0 | 0.0 | 0.00 | 0.00 | 0.00 | |||
| 20260505171745 | 0 | 0.0 | 0.0 | 0.00 | 0.00 | 0.00 | |||
| 20260505170745 | 0 | 0.0 | 0.0 | 0.00 | 0.00 | 0.00 | |||
| 20260505165745 | 0 | 0.0 | 0.0 | 0.00 | 0.00 | 0.00 | |||
| 20260505164745 | 0 | 0.0 | 0.0 | 0.00 | 0.00 | 0.00 | |||
| 20260505163745 | 0 | 0.0 | 0.0 | 0.00 | 0.00 | 0.00 | |||
| 20260505162745 | 0 | 0.0 | 0.0 | 0.00 | 0.00 | 0.00 | |||
| 20260505161835 | 0 | 0.0 | 0.0 | 0.00 | 0.00 | 0.00 | |||
| 20260505160745 | 0 | 0.0 | 0.0 | 0.00 | 0.00 | 0.00 | |||
| 20260505152745 | 0 | 0.0 | 0.0 | 0.00 | 0.00 | 0.00 | |||
| 20260505151745 | 0 | 0.0 | 0.0 | 0.00 | 0.00 | 0.00 | |||
| 20260505150810 | 0 | 0.0 | 0.0 | 0.00 | 0.00 | 0.00 | |||
| 20260505124747 | 0 | 0.0 | 0.0 | 0.00 | 0.00 | 0.00 | |||
| 20260505123746 | 0 | 0.0 | 0.0 | 0.00 | 0.00 | 0.00 | |||
| 20260505122811 | 0 | 0.0 | 0.0 | 0.00 | 0.00 | 0.00 | |||
| 20260505121811 | 0 | 0.0 | 0.0 | 0.00 | 0.00 | 0.00 | |||
| 20260505120747 | 0 | 0.0 | 0.0 | 0.00 | 0.00 | 0.00 | |||
| 20260505115746 | 0 | 0.0 | 0.0 | 0.00 | 0.00 | 0.00 | |||
| 20260505114746 | 0 | 0.0 | 0.0 | 0.00 | 0.00 | 0.00 | |||
| 20260505113747 | 0 | 0.0 | 0.0 | 0.00 | 0.00 | 0.00 | |||
| 20260505113023 | 0 | 0.0 | 0.0 | 0.00 | 0.00 | 0.00 | |||
| 20260505112533 | 71 | 0.0 | 0.0 | 0.00 | 0.00 | 0.00 | 89 | 1007.3 | |
| 20260505112312 | 71 | 135 | 4.0 | 14.0 | 0.00 | 0.00 | 0.00 | 89 | 1007.1 |
| 20260505111247 | 71 | 180 | 2.0 | 9.0 | 0.00 | 0.00 | 0.00 | 89 | 1007.2 |
| 20260505110246 | 71 | 180 | 4.0 | 14.0 | 0.00 | 0.00 | 0.00 | 89 | 1007.2 |
| 20260505101246 | 71 | 135 | 3.0 | 12.0 | 0.00 | 0.00 | 0.00 | 88 | 1007.6 |
| 20260505100326 | 71 | 180 | 3.0 | 7.0 | 0.00 | 0.00 | 0.00 | 88 | 1007.5 |
| 20260505095307 | 71 | 113 | 4.0 | 8.0 | 0.00 | 0.00 | 0.00 | 88 | 1007.3 |
| 20260505094311 | 71 | 135 | 3.0 | 9.0 | 0.00 | 0.00 | 0.00 | 88 | 1007.4 |
| 20260505093246 | 71 | 180 | 2.0 | 10.0 | 0.00 | 0.00 | 0.00 | 88 | 1007.5 |
| 20260505092246 | 71 | 113 | 4.0 | 11.0 | 0.00 | 0.00 | 0.00 | 88 | 1007.4 |
| 20260505091246 | 71 | 135 | 3.0 | 9.0 | 0.00 | 0.00 | 0.00 | 88 | 1007.3 |
| 20260505090246 | 71 | 158 | 4.0 | 12.0 | 0.00 | 0.00 | 0.00 | 87 | 1007.5 |
| 20260505085246 | 71 | 158 | 3.0 | 10.0 | 0.00 | 0.00 | 0.00 | 87 | 1007.8 |
| 20260505084306 | 71 | 135 | 3.0 | 11.0 | 0.00 | 0.00 | 0.00 | 87 | 1007.6 |
| 20260505083246 | 71 | 135 | 3.0 | 9.0 | 0.00 | 0.00 | 0.00 | 87 | 1007.9 |
| 20260505082246 | 71 | 135 | 4.0 | 9.0 | 0.00 | 0.00 | 0.00 | 87 | 1008.0 |
| 20260505081326 | 71 | 135 | 3.0 | 10.0 | 0.00 | 0.00 | 0.00 | 87 | 1008.1 |
| 20260505080246 | 71 | 113 | 3.0 | 12.0 | 0.00 | 0.00 | 0.00 | 87 | |
| 20260505075246 | 71 | 158 | 3.0 | 8.0 | 0.00 | 0.00 | 0.00 | 87 | |
| 20260505074306 | 71 | 113 | 3.0 | 10.0 | 0.00 | 0.00 | 0.00 | 87 | |
| 20260505073246 | 71 | 203 | 4.0 | 13.0 | 0.00 | 0.00 | 0.00 | 86 | |
| 20260505072246 | 71 | 135 | 3.0 | 7.0 | 0.00 | 0.00 | 0.00 | 86 | |
| 20260505071246 | 72 | 158 | 3.0 | 7.0 | 0.00 | 0.00 | 0.00 | 86 | |
| 20260505070246 | 72 | 135 | 3.0 | 8.0 | 0.00 | 0.00 | 0.00 | 86 |